SCP
0 0 0 0 0 0 0 0 0 0 0 0 0 0 0 0 0 0 0 0 0 0 0 0 0 0 0 0 0 0 0 0 0 0 0 0 0 0 0 -0 -0 -0 -0
0 0 0 0 0 0 0 0 0 0 0 0 0 0 0 0 0 0 0 0 0 0 0 0 0 0 0 0 0 0 0 0 0 0 0 0 0 0 0 0 0 -0 -0
0 0 0 0 0 0 0 0 0 0 0 0 0 0 0 0 0 0 0 0 0 0 0 0 0 0 0 0 0 0 0 0 0 0 0 0 0 0 0 0 0 0 -0
0 0 0 0 0 0 0 0 0 0 0 0 0 0 0 0 0 0 0 0 0 0 0 0 0 0 0 0 0 0 0 0 0 0 0 0 0 0 0 0 0 0 0
0 0 0 0 0 0 0 0 0 0 0 0 0 0 0 0 0 0 0 0 0 0 0 0 0 0 0 0 0 0 0 0 0 0 0 0 0 0 0 0 0 0 0
0 0 0 0 0 0 0 0 0 0 0 0 0 0 0 0 0 0 0 0 0 0 0 0 0 0 0 0 0 0 0 0 0 0 0 0 0 0 0 0 0 0 0
0 0 0 0 0 0 0 0 0 0 0 0 0 0 0 0 0 0 0 0 0 0 0 0 0 0 0 0 0 0 0 0 0 0 0 0 0 0 0 0 0 0 0
0 0 0 0 0 0 0 0 0 0 0 0 0 0 0 0 0 0 0 0 0 0 0 0 0 0 0 0 0 0 0 0 0 0 0 0 0 0 0 0 0 0 0
0 0 0 0 0 0 0 0 0 0 0 0 0 0 0 0 0 0 0 0 0 0 0 0 0 0 0 0 0 0 0 0 0 0 0 0 0 0 0 0 0 0 0
0 0 0 0 0 0 0 0 0 0 0 0 0 0 0 0 0 0 0 0 0 0 0 0 0 0 0 0 0 0 0 0 0 0 0 0 0 0 0 0 0 0 0
0 0 0 0 0 0 0 0 0 0 0 0 0 0 0 0 0 0 0 0 0 0 0 0 0 0 0 0 0 0 0 0 0 0 0 0 0 0 0 0 0 0 0
0 0 0 0 0 0 0 0 0 0 0 0 0 0 0 0 0 0 0 0 0 0 0 0 0 0 0 0 0 0 0 0 0 0 0 0 0 0 0 0 0 0 0
0 0 0 0 0 0 0 0 0 0 0 0 0 0 0 0 0 0 0 0 0 0 0 0 0 0 0 0 0 0 0 0 0 0 0 0 0 0 0 0 0 0 0
0 0 0 0 0 0 0 0 0 0 0 0 0 0 0 0 0 0 0 0 0 0 0 0 0 0 0 0 0 0 0 0 0 0 0 0 0 0 0 0 0 0 0
0 0 0 0 0 0 0 0 0 0 0 0 0 0 0 0 0 0 0 0 0 0 0 0 0 0 0 0 0 0 0 0 0 0 0 0 0 0 0 0 0 0 0
0 0 0 0 0 0 0 0 0 0 0 0 0 0 0 0 0 0 -0 0 0 0 0 0 0 0 0 0 0 0 0 0 0 0 0 0 0 0 0 0 0 0 0
0 0 0 0 0 0 0 0 0 0 0 0 0 0 0 0 0 0 0 0 0 0 0 0 0 0 0 0 0 0 0 0 0 0 0 0 0 0 0 0 0 0 0
0 0 0 0 0 0 0 0 0 0 0 0 0 0 0 0 0 0 0 0 0 0 0 0 0 0 0 0 0 0 0 0 0 0 0 0 0 0 0 0 0 0 0
0 0 0 0 0 0 0 0 0 0 0 0 0 0 0 0 0 0 0 0 0 0 0 0 0 0 0 0 0 0 0 0 0 0 0 0 0 0 0 0 0 0 0
0 0 0 0 0 0 0 0 0 0 0 0 0 0 0 0 0 0 0 0 0 0 0 0 0 0 0 0 0 0 0 0 0 0 0 0 0 0 0 0 0 0 0
0 0 0 0 0 0 0 0 0 0 0 0 0 0 0 0 0 0 0 0 0 0 0 0 0 0 0 0 0 0 0 0 0 0 0 0 0 0 0 0 0 0 0
0 0 0 0 0 0 0 0 0 0 0 0 0 0 0 0 0 0 0 0 0 0 0 0 0 0 0 0 0 0 0 0 0 0 0 0 0 0 0 0 0 0 0
0 0 0 0 0 0 0 0 0 0 0 0 0 0 0 0 0 0 0 0 0 0 0 0 0 0 0 0 0 0 0 0 0 0 0 0 0 0 0 -0 -0 0 0
0 0 0 0 0 0 0 0 0 0 0 0 0 0 0 0 0 0 0 0 0 0 0 0 0 0 0 0 0 0 0 0 0 0 0 0 0 0 0 0 0 0 0
0 0 0 0 0 0 0 0 0 0 0 0 0 0 0 0 0 0 0 0 0 0 0 0 0 0 0 0 0 0 0 0 0 0 0 0 0 0 0 0 0 -0 0
0 0 0 0 0 0 0 0 0 0 0 0 0 0 0 0 0 0 0 0 0 0 0 0 0 0 0 0 0 0 0 0 0 0 0 0 -0 -0 0 0 -0 -0 -0
Wind_Speed_500mb
20 14 8 1 6 12 16 19 23 29 35 39 43 48 53 58 64 70 75 79 82 85 84 85 87 81 83 76 75 75 70 62 77 99 75 67 69 95 113 109 109 109 111
17 11 8 7 9 13 18 22 29 35 40 44 48 54 62 70 75 78 80 81 84 85 86 85 88 83 83 79 66 64 67 65 70 87 94 78 69 64 76 103 112 113 109
18 13 12 11 13 16 22 29 35 40 44 49 54 63 71 76 75 75 77 79 81 84 85 85 87 83 86 78 68 70 70 70 74 76 97 90 77 66 70 69 85 103 108
19 19 17 14 17 22 28 35 39 43 48 55 63 71 72 72 72 74 77 82 83 83 79 75 73 68 65 62 62 63 65 69 76 76 80 86 80 74 68 70 76 76 83
26 20 16 17 22 28 34 37 41 46 55 64 69 67 68 70 71 75 78 77 73 71 67 65 60 59 63 63 63 62 61 66 71 71 74 75 81 65 52 59 71 74 86
25 19 19 22 27 32 35 38 44 53 62 65 64 67 68 69 71 74 73 69 64 60 60 56 56 56 54 56 57 59 60 66 74 73 75 74 88 77 76 78 79 70 80
25 23 25 27 31 34 35 40 50 58 59 62 65 66 69 70 73 74 72 68 60 56 57 56 56 52 55 55 54 55 55 55 58 66 77 77 85 69 71 74 75 87 97
27 28 29 30 33 33 36 45 52 55 60 63 65 67 69 70 71 71 69 61 56 51 53 54 55 56 53 55 59 63 59 59 59 60 66 76 77 74 72 77 86 91 90
32 34 33 32 32 33 39 47 50 55 60 62 64 66 69 69 66 67 64 55 49 51 51 52 56 58 56 56 62 74 76 76 69 64 67 71 73 73 73 77 87 78 87
39 37 33 32 32 35 43 47 50 56 60 61 63 62 62 64 60 60 55 46 53 56 63 64 65 64 62 61 65 69 77 82 82 85 90 93 97 93 78 77 89 87 87
41 36 34 33 34 38 43 46 50 55 59 59 62 59 56 56 55 54 45 46 55 65 69 70 70 66 64 66 69 80 92 94 92 87 84 77 74 82 90 85 82 83 89
40 37 36 35 36 39 41 44 47 53 55 56 58 55 50 51 51 52 43 47 52 60 70 77 76 75 70 68 69 71 72 74 83 87 85 88 86 86 86 82 83 84 89
42 39 38 36 37 39 40 43 45 49 51 53 54 53 50 50 50 48 52 51 54 60 61 62 67 71 69 67 64 66 65 64 64 68 72 75 74 76 75 76 82 87 90
44 41 40 38 38 39 39 42 43 44 47 49 50 49 46 46 49 51 59 60 62 63 72 66 66 59 53 53 53 52 52 52 54 59 65 69 71 73 69 71 74 72 71
45 44 42 41 40 39 38 39 41 40 43 46 44 43 40 45 47 48 50 56 57 60 59 58 57 56 57 58 58 56 55 55 56 59 63 68 70 68 76 69 68 67 69
50 48 45 43 43 41 40 37 38 36 38 40 39 37 40 40 38 42 45 46 49 49 53 54 55 56 58 62 65 67 62 60 60 63 64 63 64 66 74 67 57 60 69
52 50 49 47 45 43 42 41 39 33 31 34 37 40 36 37 37 37 41 42 45 47 48 50 53 57 61 63 65 68 69 65 64 63 66 64 62 64 67 68 65 67 69
54 54 53 50 48 45 44 43 42 41 38 30 32 38 38 37 37 35 40 43 46 44 46 49 53 58 61 65 65 69 71 68 66 69 72 66 64 59 66 68 67 65 69
56 57 55 52 50 49 47 45 44 43 42 41 35 34 36 37 34 33 37 41 46 48 49 50 51 54 59 62 64 67 69 69 71 76 74 69 64 61 60 63 68 66 65
58 58 57 55 53 51 48 47 44 44 44 42 40 36 35 43 43 40 40 42 44 46 48 50 50 50 55 59 62 65 70 71 72 81 74 68 64 59 59 59 54 61 64
57 57 58 58 54 52 50 48 46 47 46 44 41 39 36 41 46 46 47 46 46 48 49 48 48 48 50 55 59 61 66 71 72 81 72 66 62 60 56 52 50 48 44
56 56 58 57 55 54 51 49 48 49 48 46 43 42 41 42 45 48 47 47 45 44 45 46 45 45 46 49 54 56 60 67 76 75 71 64 59 56 52 49 46 42 39
55 55 55 55 54 53 52 51 50 51 50 49 48 47 46 46 46 47 47 46 43 41 40 41 43 42 41 41 44 47 49 59 70 66 66 63 59 55 50 47 44 41 37
50 51 52 53 53 54 54 54 54 53 53 52 52 51 50 49 47 45 44 44 42 39 39 38 39 39 39 39 39 40 38 44 57 59 59 60 60 57 52 47 43 39 36
46 49 51 51 53 53 54 55 55 54 54 53 53 51 48 46 45 44 43 44 43 42 40 39 39 39 38 36 35 33 34 34 47 52 56 57 57 56 55 51 46 41 36
44 46 48 49 50 50 51 53 52 51 50 48 48 47 46 45 44 46 45 46 45 44 43 41 39 38 38 37 34 30 28 27 38 47 54 57 58 56 52 48 46 43 40
Wind_Direction_500mb
158 151 155 258 325 318 326 328 327 328 327 325 324 321 319 318 316 315 312 310 307 306 305 303 301 300 297 293 291 289 285 281 280 288 284 283 281 285 286 288 289 287 287
177 181 220 262 296 314 318 321 321 324 323 321 321 319 318 316 315 313 310 309 307 305 303 300 297 296 293 291 289 284 283 281 280 285 290 288 285 282 282 284 285 287 286
191 209 237 255 278 299 310 313 318 319 319 318 318 317 316 315 314 313 310 308 305 303 300 297 295 293 290 289 286 283 282 283 282 281 285 290 288 287 286 281 283 284 286
209 226 239 260 286 302 306 311 314 317 317 317 316 316 316 316 316 313 311 309 306 302 299 297 295 293 291 291 288 287 286 284 281 280 283 287 290 290 285 283 284 289 289
220 231 253 274 291 301 308 311 313 316 317 317 317 317 318 317 317 315 313 309 306 303 300 298 295 291 290 291 292 294 293 290 287 285 283 286 284 289 291 293 283 284 286
224 239 263 282 292 301 306 310 314 316 317 318 320 320 320 320 319 317 315 310 306 302 302 300 297 295 295 292 289 287 285 286 286 286 285 283 281 284 286 287 285 294 286
232 247 260 273 290 300 305 310 315 316 319 320 321 322 322 322 321 317 314 311 307 304 301 302 302 299 298 298 296 294 290 286 282 284 284 282 284 287 289 290 288 280 276
235 250 261 276 290 296 303 311 316 319 321 322 322 322 322 323 320 318 316 313 308 304 303 303 303 304 303 301 300 297 297 297 291 285 282 286 289 293 292 292 291 288 286
242 250 262 276 285 293 305 313 317 319 320 321 321 323 324 323 321 320 318 314 309 309 309 310 309 305 304 301 301 301 299 296 294 288 284 282 283 284 283 285 280 281 281
242 249 263 274 283 296 307 312 316 318 319 320 321 324 324 322 322 321 320 317 314 317 321 315 314 309 305 301 298 299 298 299 303 301 299 296 295 290 282 272 271 272 273
242 252 264 275 282 297 307 311 314 316 318 319 319 323 324 323 325 328 327 325 321 319 312 314 315 311 307 304 300 296 294 301 295 295 295 293 291 287 286 282 274 267 267
246 256 265 269 283 297 303 307 312 313 315 316 318 322 326 324 327 334 329 320 318 318 319 318 319 315 307 303 299 297 296 294 289 289 289 287 288 288 286 282 277 272 268
247 255 259 267 282 293 300 306 310 311 313 316 318 322 326 328 331 335 341 333 324 319 315 310 307 309 309 310 311 308 306 305 303 302 301 298 300 300 296 290 284 279 272
248 255 258 267 281 289 296 301 306 309 312 314 317 322 323 324 326 335 341 330 328 320 318 322 323 320 321 321 322 321 319 318 316 313 314 312 313 312 302 300 292 290 283
249 254 256 265 277 282 288 294 301 305 309 314 318 316 313 314 325 326 325 325 325 322 322 331 336 341 343 343 341 337 334 331 329 328 323 319 317 312 305 304 296 288 281
250 251 253 263 272 277 283 287 293 299 305 307 306 305 305 308 313 319 322 322 321 331 332 336 344 347 347 347 348 346 344 341 339 333 328 322 313 311 305 303 298 286 282
249 250 252 260 267 272 277 284 290 290 292 295 299 304 308 313 315 320 320 323 329 330 335 342 346 348 349 349 349 349 346 346 341 330 328 324 319 313 311 310 302 291 283
248 249 253 259 264 268 273 279 286 291 296 295 295 299 306 312 319 318 322 326 325 333 339 343 345 348 349 349 349 349 348 348 339 334 335 332 325 319 313 314 310 296 288
249 251 254 259 262 265 269 275 282 287 292 296 296 295 298 304 310 314 319 323 327 330 335 340 342 345 347 348 349 349 348 352 344 335 335 336 333 329 321 315 317 313 307
250 252 256 260 262 264 267 272 277 281 284 286 290 292 294 300 306 314 318 322 325 327 330 334 338 340 343 346 348 350 349 356 347 339 341 340 339 336 332 327 321 315 314
253 254 258 260 262 263 264 267 271 275 277 280 284 288 293 295 302 307 312 316 319 322 323 327 331 334 340 344 348 349 351 356 347 346 346 345 344 342 340 337 331 329 324
254 256 258 260 262 263 265 266 268 271 275 278 281 283 287 290 294 298 303 306 310 315 317 321 326 332 335 340 346 348 352 357 349 349 351 351 351 350 348 346 346 346 343
255 257 259 261 262 263 265 267 269 272 275 277 280 282 285 288 290 294 297 300 303 308 311 315 320 325 332 335 343 347 351 1 350 354 356 358 358 356 356 355 356 357 358
259 262 264 266 267 267 268 269 270 271 273 275 277 280 283 287 290 292 294 296 300 302 304 310 316 321 326 331 337 343 347 2 352 357 0 4 5 4 3 3 4 5 7
269 268 268 268 268 269 270 269 270 271 272 274 276 278 280 283 286 289 293 294 296 298 298 301 308 314 318 321 329 335 344 358 356 357 2 3 4 7 10 11 12 16 17
276 276 276 276 275 275 273 272 272 273 274 274 275 276 279 282 285 288 291 292 294 296 297 297 300 307 311 312 314 321 328 347 352 353 359 2 1 2 6 10 14 20 25
Wind_Speed_850mb
20 14 8 1 6 12 16 19 23 29 35 39 43 48 53 58 64 70 75 79 82 85 84 85 87 81 83 76 75 75 70 62 77 99 75 67 69 95 113 109 109 109 111
17 11 8 7 9 13 18 22 29 35 40 44 48 54 62 70 75 78 80 81 84 85 86 85 88 83 83 79 66 64 67 65 70 87 94 78 69 64 76 103 112 113 109
18 13 12 11 13 16 22 29 35 40 44 49 54 63 71 76 75 75 77 79 81 84 85 85 87 83 86 78 68 70 70 70 74 76 97 90 77 66 70 69 85 103 108
19 19 17 14 17 22 28 35 39 43 48 55 63 71 72 72 72 74 77 82 83 83 79 75 73 68 65 62 62 63 65 69 76 76 80 86 80 74 68 70 76 76 83
26 20 16 17 22 28 34 37 41 46 55 64 69 67 68 70 71 75 78 77 73 71 67 65 60 59 63 63 63 62 61 66 71 71 74 75 81 65 52 59 71 74 86
25 19 19 22 27 32 35 38 44 53 62 65 64 67 68 69 71 74 73 69 64 60 60 56 56 56 54 56 57 59 60 66 74 73 75 74 88 77 76 78 79 70 80
25 23 25 27 31 34 35 40 50 58 59 62 65 66 69 70 73 74 72 68 60 56 57 56 56 52 55 55 54 55 55 55 58 66 77 77 85 69 71 74 75 87 97
27 28 29 30 33 33 36 45 52 55 60 63 65 67 69 70 71 71 69 61 56 51 53 54 55 56 53 55 59 63 59 59 59 60 66 76 77 74 72 77 86 91 90
32 34 33 32 32 33 39 47 50 55 60 62 64 66 69 69 66 67 64 55 49 51 51 52 56 58 56 56 62 74 76 76 69 64 67 71 73 73 73 77 87 78 87
39 37 33 32 32 35 43 47 50 56 60 61 63 62 62 64 60 60 55 46 53 56 63 64 65 64 62 61 65 69 77 82 82 85 90 93 97 93 78 77 89 87 87
41 36 34 33 34 38 43 46 50 55 59 59 62 59 56 56 55 54 45 46 55 65 69 70 70 66 64 66 69 80 92 94 92 87 84 77 74 82 90 85 82 83 89
40 37 36 35 36 39 41 44 47 53 55 56 58 55 50 51 51 52 43 47 52 60 70 77 76 75 70 68 69 71 72 74 83 87 85 88 86 86 86 82 83 84 89
42 39 38 36 37 39 40 43 45 49 51 53 54 53 50 50 50 48 52 51 54 60 61 62 67 71 69 67 64 66 65 64 64 68 72 75 74 76 75 76 82 87 90
44 41 40 38 38 39 39 42 43 44 47 49 50 49 46 46 49 51 59 60 62 63 72 66 66 59 53 53 53 52 52 52 54 59 65 69 71 73 69 71 74 72 71
45 44 42 41 40 39 38 39 41 40 43 46 44 43 40 45 47 48 50 56 57 60 59 58 57 56 57 58 58 56 55 55 56 59 63 68 70 68 76 69 68 67 69
50 48 45 43 43 41 40 37 38 36 38 40 39 37 40 40 38 42 45 46 49 49 53 54 55 56 58 62 65 67 62 60 60 63 64 63 64 66 74 67 57 60 69
52 50 49 47 45 43 42 41 39 33 31 34 37 40 36 37 37 37 41 42 45 47 48 50 53 57 61 63 65 68 69 65 64 63 66 64 62 64 67 68 65 67 69
54 54 53 50 48 45 44 43 42 41 38 30 32 38 38 37 37 35 40 43 46 44 46 49 53 58 61 65 65 69 71 68 66 69 72 66 64 59 66 68 67 65 69
56 57 55 52 50 49 47 45 44 43 42 41 35 34 36 37 34 33 37 41 46 48 49 50 51 54 59 62 64 67 69 69 71 76 74 69 64 61 60 63 68 66 65
58 58 57 55 53 51 48 47 44 44 44 42 40 36 35 43 43 40 40 42 44 46 48 50 50 50 55 59 62 65 70 71 72 81 74 68 64 59 59 59 54 61 64
57 57 58 58 54 52 50 48 46 47 46 44 41 39 36 41 46 46 47 46 46 48 49 48 48 48 50 55 59 61 66 71 72 81 72 66 62 60 56 52 50 48 44
56 56 58 57 55 54 51 49 48 49 48 46 43 42 41 42 45 48 47 47 45 44 45 46 45 45 46 49 54 56 60 67 76 75 71 64 59 56 52 49 46 42 39
55 55 55 55 54 53 52 51 50 51 50 49 48 47 46 46 46 47 47 46 43 41 40 41 43 42 41 41 44 47 49 59 70 66 66 63 59 55 50 47 44 41 37
50 51 52 53 53 54 54 54 54 53 53 52 52 51 50 49 47 45 44 44 42 39 39 38 39 39 39 39 39 40 38 44 57 59 59 60 60 57 52 47 43 39 36
46 49 51 51 53 53 54 55 55 54 54 53 53 51 48 46 45 44 43 44 43 42 40 39 39 39 38 36 35 33 34 34 47 52 56 57 57 56 55 51 46 41 36
44 46 48 49 50 50 51 53 52 51 50 48 48 47 46 45 44 46 45 46 45 44 43 41 39 38 38 37 34 30 28 27 38 47 54 57 58 56 52 48 46 43 40
Wind_Direction_850mb
158 151 155 258 325 318 326 328 327 328 327 325 324 321 319 318 316 315 312 310 307 306 305 303 301 300 297 293 291 289 285 281 280 288 284 283 281 285 286 288 289 287 287
177 181 220 262 296 314 318 321 321 324 323 321 321 319 318 316 315 313 310 309 307 305 303 300 297 296 293 291 289 284 283 281 280 285 290 288 285 282 282 284 285 287 286
191 209 237 255 278 299 310 313 318 319 319 318 318 317 316 315 314 313 310 308 305 303 300 297 295 293 290 289 286 283 282 283 282 281 285 290 288 287 286 281 283 284 286
209 226 239 260 286 302 306 311 314 317 317 317 316 316 316 316 316 313 311 309 306 302 299 297 295 293 291 291 288 287 286 284 281 280 283 287 290 290 285 283 284 289 289
220 231 253 274 291 301 308 311 313 316 317 317 317 317 318 317 317 315 313 309 306 303 300 298 295 291 290 291 292 294 293 290 287 285 283 286 284 289 291 293 283 284 286
224 239 263 282 292 301 306 310 314 316 317 318 320 320 320 320 319 317 315 310 306 302 302 300 297 295 295 292 289 287 285 286 286 286 285 283 281 284 286 287 285 294 286
232 247 260 273 290 300 305 310 315 316 319 320 321 322 322 322 321 317 314 311 307 304 301 302 302 299 298 298 296 294 290 286 282 284 284 282 284 287 289 290 288 280 276
235 250 261 276 290 296 303 311 316 319 321 322 322 322 322 323 320 318 316 313 308 304 303 303 303 304 303 301 300 297 297 297 291 285 282 286 289 293 292 292 291 288 286
242 250 262 276 285 293 305 313 317 319 320 321 321 323 324 323 321 320 318 314 309 309 309 310 309 305 304 301 301 301 299 296 294 288 284 282 283 284 283 285 280 281 281
242 249 263 274 283 296 307 312 316 318 319 320 321 324 324 322 322 321 320 317 314 317 321 315 314 309 305 301 298 299 298 299 303 301 299 296 295 290 282 272 271 272 273
242 252 264 275 282 297 307 311 314 316 318 319 319 323 324 323 325 328 327 325 321 319 312 314 315 311 307 304 300 296 294 301 295 295 295 293 291 287 286 282 274 267 267
246 256 265 269 283 297 303 307 312 313 315 316 318 322 326 324 327 334 329 320 318 318 319 318 319 315 307 303 299 297 296 294 289 289 289 287 288 288 286 282 277 272 268
247 255 259 267 282 293 300 306 310 311 313 316 318 322 326 328 331 335 341 333 324 319 315 310 307 309 309 310 311 308 306 305 303 302 301 298 300 300 296 290 284 279 272
248 255 258 267 281 289 296 301 306 309 312 314 317 322 323 324 326 335 341 330 328 320 318 322 323 320 321 321 322 321 319 318 316 313 314 312 313 312 302 300 292 290 283
249 254 256 265 277 282 288 294 301 305 309 314 318 316 313 314 325 326 325 325 325 322 322 331 336 341 343 343 341 337 334 331 329 328 323 319 317 312 305 304 296 288 281
250 251 253 263 272 277 283 287 293 299 305 307 306 305 305 308 313 319 322 322 321 331 332 336 344 347 347 347 348 346 344 341 339 333 328 322 313 311 305 303 298 286 282
249 250 252 260 267 272 277 284 290 290 292 295 299 304 308 313 315 320 320 323 329 330 335 342 346 348 349 349 349 349 346 346 341 330 328 324 319 313 311 310 302 291 283
248 249 253 259 264 268 273 279 286 291 296 295 295 299 306 312 319 318 322 326 325 333 339 343 345 348 349 349 349 349 348 348 339 334 335 332 325 319 313 314 310 296 288
249 251 254 259 262 265 269 275 282 287 292 296 296 295 298 304 310 314 319 323 327 330 335 340 342 345 347 348 349 349 348 352 344 335 335 336 333 329 321 315 317 313 307
250 252 256 260 262 264 267 272 277 281 284 286 290 292 294 300 306 314 318 322 325 327 330 334 338 340 343 346 348 350 349 356 347 339 341 340 339 336 332 327 321 315 314
253 254 258 260 262 263 264 267 271 275 277 280 284 288 293 295 302 307 312 316 319 322 323 327 331 334 340 344 348 349 351 356 347 346 346 345 344 342 340 337 331 329 324
254 256 258 260 262 263 265 266 268 271 275 278 281 283 287 290 294 298 303 306 310 315 317 321 326 332 335 340 346 348 352 357 349 349 351 351 351 350 348 346 346 346 343
255 257 259 261 262 263 265 267 269 272 275 277 280 282 285 288 290 294 297 300 303 308 311 315 320 325 332 335 343 347 351 1 350 354 356 358 358 356 356 355 356 357 358
259 262 264 266 267 267 268 269 270 271 273 275 277 280 283 287 290 292 294 296 300 302 304 310 316 321 326 331 337 343 347 2 352 357 0 4 5 4 3 3 4 5 7
269 268 268 268 268 269 270 269 270 271 272 274 276 278 280 283 286 289 293 294 296 298 298 301 308 314 318 321 329 335 344 358 356 357 2 3 4 7 10 11 12 16 17
276 276 276 276 275 275 273 272 272 273 274 274 275 276 279 282 285 288 291 292 294 296 297 297 300 307 311 312 314 321 328 347 352 353 359 2 1 2 6 10 14 20 25